Manteo, NC

4:52 AM EDT on March 25, 2017 (GMT -0400)
Dare County Regional

Weather History for KMQI - May, 2013

Change the Weather History Date:

Wednesday, May 1, 2013

  Actual Average Record
Temperature  
Mean Temperature 61 °F -  
Max Temperature 66 °F 68 °F 84 °F (1986)
Min Temperature 56 °F 55 °F 45 °F (1968)
Degree Days  
Heating Degree Days 4    
Growing Degree Days 11 (Base 50)    
Moisture  
Dew Point 57 °F    
Average Humidity 91    
Maximum Humidity 98    
Minimum Humidity 78    
Precipitation  
Precipitation 0.00 in - - ()
Sea Level Pressure  
Sea Level Pressure 30.21 in    
Wind  
Wind Speed 10 mph (NE)    
Max Wind Speed 20 mph    
Max Gust Speed 30 mph    
Visibility 6 miles    
Events      
Averages and records for this station are not official NWS values.
T = Trace of Precipitation, MM = Missing Value Source: NWS Daily Summary

Daily Weather History Graph

Daily Weather History Graph

Search for Another Location

Airport or City:

Trip Planner

Search our weather history database for the weather conditions in past years. The results will help you decide how hot, cold, wet, or windy it might be!

Date:

Astronomy

May. 01, 2013 Rise Set
Actual Time 6:10 AM EDT 7:50 PM EDT
Civil Twilight 5:42 AM EDT 8:17 PM EDT
Nautical Twilight 5:09 AM EDT 8:50 PM EDT
Astronomical Twilight 4:34 AM EDT 9:25 PM EDT
Moon 12:57 AM EDT (5/1) 11:45 AM EDT (5/1)
Length of Visible Light 14h 34m
Length of Day
13h 39m
Waning Gibbous, 59% of the Moon is Illuminated
May 1
Waning Gibbous
May 2
Last Quarter
May 9
New
May 18
First Quarter
May 25
Full

Hourly Weather History & Observations

Time (EDT) Temp. Dew Point Humidity Pressure Visibility Wind Dir Wind Speed Gust Speed Precip Events Conditions
12:15 AM 58.1 °F 56.8 °F 96% 30.11 in 7.0 mi NNE 5.8 mph - N/A   Overcast
12:35 AM 58.1 °F 56.7 °F 95% 30.11 in 7.0 mi NNE 6.9 mph - N/A   Overcast
12:55 AM 57.7 °F 56.5 °F 96% 30.12 in 4.0 mi NNE 4.6 mph - N/A   Overcast
1:15 AM 57.9 °F 56.7 °F 96% 30.11 in 2.5 mi NNE 6.9 mph - N/A   Overcast
1:35 AM 58.1 °F 57.2 °F 97% 30.11 in 1.5 mi NNE 3.5 mph - N/A   Overcast
1:55 AM 58.5 °F 57.6 °F 97% 30.11 in 1.5 mi NNE 5.8 mph - N/A   Overcast
2:15 AM 58.6 °F 57.7 °F 97% 30.11 in 2.0 mi North 6.9 mph - N/A   Overcast
2:35 AM 58.5 °F 57.7 °F 97% 30.11 in 2.5 mi NE 5.8 mph - N/A   Overcast
2:55 AM 58.5 °F 57.7 °F 97% 30.10 in 1.5 mi NNE 3.5 mph - N/A   Overcast
3:15 AM 58.1 °F 57.4 °F 97% 30.11 in 1.8 mi NNE 6.9 mph - N/A   Overcast
3:35 AM 57.6 °F 57.0 °F 98% 30.11 in 3.0 mi NNE 8.1 mph - N/A   Overcast
4:15 AM 57.2 °F 56.5 °F 97% 30.11 in 3.0 mi NNE 8.1 mph - N/A   Overcast
4:35 AM 57.2 °F 56.5 °F 97% 30.11 in 2.0 mi NNE 9.2 mph - N/A   Overcast
4:55 AM 57.2 °F 56.5 °F 97% 30.11 in 1.5 mi NNE 11.5 mph - N/A   Overcast
5:15 AM 57.4 °F 56.7 °F 97% 30.11 in 1.8 mi NNE 9.2 mph - N/A   Overcast
5:35 AM 57.4 °F 56.7 °F 97% 30.12 in 1.8 mi NNE 11.5 mph - N/A   Overcast
5:55 AM 57.4 °F 56.7 °F 97% 30.12 in 3.0 mi NNE 8.1 mph - N/A   Overcast
6:15 AM 57.4 °F 56.7 °F 97% 30.13 in 5.0 mi North 9.2 mph - N/A   Overcast
6:35 AM 57.9 °F 57.2 °F 97% 30.14 in 7.0 mi NNE 9.2 mph - N/A   Overcast
7:15 AM 58.3 °F 57.2 °F 96% 30.15 in 7.0 mi NE 12.7 mph - N/A   Overcast
7:35 AM 58.5 °F 57.2 °F 96% 30.15 in 4.0 mi NNE 12.7 mph - N/A   Overcast
7:55 AM 58.5 °F 57.2 °F 96% 30.16 in 4.0 mi NNE 11.5 mph 18.4 mph N/A   Overcast
8:15 AM 58.5 °F 57.2 °F 96% 30.16 in 4.0 mi NNE 13.8 mph 18.4 mph N/A   Overcast
8:35 AM 59.0 °F 57.4 °F 94% 30.17 in 4.0 mi NE 10.4 mph - N/A   Overcast
8:55 AM 58.6 °F 57.0 °F 94% 30.17 in 3.0 mi NE 8.1 mph - N/A   Overcast
9:15 AM 59.0 °F 57.2 °F 94% 30.17 in 2.5 mi NE 5.8 mph - N/A   Overcast
9:35 AM 59.5 °F 57.2 °F 92% 30.17 in 3.0 mi Calm Calm - N/A   Overcast
9:55 AM 60.8 °F 57.9 °F 90% 30.18 in 5.0 mi NE 3.5 mph - N/A   Overcast
10:15 AM 60.8 °F 57.9 °F 90% 30.19 in 2.5 mi East 8.1 mph - N/A   Overcast
10:35 AM 60.6 °F 58.1 °F 91% 30.21 in 1.0 mi East 5.8 mph - N/A   Overcast
10:55 AM 63.3 °F 59.5 °F 87% 30.21 in 10.0 mi ESE 6.9 mph - N/A   Overcast
11:15 AM 66.6 °F 61.3 °F 83% 30.22 in 10.0 mi ESE 5.8 mph - N/A   Mostly Cloudy
11:35 AM 66.0 °F 59.7 °F 80% 30.23 in 10.0 mi ENE 12.7 mph 18.4 mph N/A   Mostly Cloudy
11:55 AM 63.3 °F 59.2 °F 86% 30.24 in 10.0 mi ENE 10.4 mph - N/A   Overcast
12:15 PM 64.4 °F 59.7 °F 85% 30.24 in 10.0 mi ENE 15.0 mph - N/A   Overcast
12:35 PM 65.3 °F 59.0 °F 80% 30.24 in 10.0 mi ENE 16.1 mph 21.9 mph N/A   Scattered Clouds
12:55 PM 64.8 °F 58.5 °F 80% 30.24 in 10.0 mi ENE 17.3 mph 23.0 mph N/A   Clear
1:15 PM 66.4 °F 59.7 °F 79% 30.24 in 10.0 mi ENE 17.3 mph 21.9 mph N/A   Clear
1:35 PM 65.1 °F 58.5 °F 79% 30.24 in 10.0 mi ENE 19.6 mph 26.5 mph N/A   Mostly Cloudy
1:55 PM 65.5 °F 58.5 °F 78% 30.24 in 10.0 mi ENE 18.4 mph 29.9 mph N/A   Scattered Clouds
2:15 PM 64.9 °F 58.6 °F 80% 30.25 in 10.0 mi ENE 18.4 mph 25.3 mph N/A   Mostly Cloudy
2:35 PM 65.1 °F 59.0 °F 81% 30.25 in 10.0 mi ENE 18.4 mph 24.2 mph N/A   Overcast
2:55 PM 64.4 °F 58.8 °F 82% 30.25 in 10.0 mi ENE 17.3 mph 26.5 mph N/A   Overcast
3:15 PM 63.7 °F 58.3 °F 83% 30.25 in 10.0 mi ENE 18.4 mph 24.2 mph N/A   Overcast
3:35 PM 63.9 °F 58.3 °F 82% 30.26 in 10.0 mi ENE 18.4 mph 25.3 mph N/A   Overcast
3:55 PM 62.8 °F 57.7 °F 84% 30.27 in 10.0 mi ENE 16.1 mph 21.9 mph N/A   Overcast
4:15 PM 61.7 °F 57.2 °F 85% 30.27 in 7.0 mi NE 16.1 mph 23.0 mph N/A   Overcast
4:35 PM 61.9 °F 57.2 °F 85% 30.28 in 7.0 mi ENE 18.4 mph - N/A   Overcast
5:15 PM 61.2 °F 57.6 °F 88% 30.27 in 7.0 mi NE 19.6 mph 25.3 mph N/A   Overcast
5:35 PM 61.0 °F 57.0 °F 87% 30.27 in 10.0 mi ENE 18.4 mph - N/A   Overcast
5:55 PM 61.0 °F 56.7 °F 86% 30.27 in 10.0 mi ENE 17.3 mph 23.0 mph N/A   Overcast
6:15 PM 59.9 °F 56.3 °F 88% 30.27 in 7.0 mi NE 16.1 mph 24.2 mph N/A   Mostly Cloudy
6:35 PM 59.2 °F 55.8 °F 88% 30.28 in 7.0 mi NE 15.0 mph 21.9 mph N/A   Mostly Cloudy
7:15 PM 58.1 °F 55.0 °F 90% 30.28 in 7.0 mi NE 18.4 mph 23.0 mph N/A   Overcast
7:35 PM 57.4 °F 54.7 °F 91% 30.28 in 7.0 mi NE 15.0 mph 20.7 mph N/A   Overcast
7:55 PM 57.0 °F 54.5 °F 91% 30.29 in 7.0 mi NE 13.8 mph 20.7 mph N/A   Overcast
8:15 PM 56.7 °F 54.3 °F 92% 30.29 in 7.0 mi NE 16.1 mph - N/A   Overcast
8:35 PM 56.5 °F 54.3 °F 92% 30.30 in 7.0 mi NE 16.1 mph 23.0 mph N/A   Overcast
8:55 PM 56.5 °F 54.1 °F 92% 30.30 in 7.0 mi NE 17.3 mph 21.9 mph N/A   Overcast
9:35 PM 56.5 °F 54.9 °F 94% 30.31 in 4.0 mi NE 15.0 mph 23.0 mph N/A   Overcast
9:55 PM 56.3 °F 55.4 °F 97% 30.31 in 1.8 mi NE 16.1 mph 23.0 mph N/A   Overcast
10:35 PM 56.3 °F 55.4 °F 97% 30.31 in 1.5 mi NE 11.5 mph 20.7 mph N/A   Overcast
10:55 PM 56.3 °F 55.4 °F 97% 30.30 in 2.0 mi NE 13.8 mph 20.7 mph N/A   Overcast
11:15 PM 56.7 °F 55.8 °F 97% 30.30 in 5.0 mi NE 12.7 mph - N/A   Overcast
11:35 PM 57.0 °F 55.6 °F 95% 30.30 in 7.0 mi NE 12.7 mph 19.6 mph N/A   Overcast
11:55 PM 57.2 °F 55.6 °F 94% 30.30 in 7.0 mi NE 12.7 mph - N/A   Mostly Cloudy